Location: Heisler
(52.6701°N, 112.2239°W)
Time: 15:15:09
(UTC+00:00)

Envisat - Pass Details

Date: 04 December 2021
Orbit: 764 x 766 km, 98.2° (Epoch: 26 January)

Event Time Altitude Azimuth Distance (km) Brightness Sun altitude
Rises 00:08:15 0° 187° (S) 3,222 6.7 -7.5°
Reaches altitude 10° 00:10:41 10° 195° (SSW) 2,300 6.1 -7.8°
Maximum altitude 00:15:25 39° 264° (W) 1,146 4.6 -8.5°
Drops below altitude 10° 00:20:12 10° 333° (NNW) 2,317 5.5 -9.1°
Sets 00:22:40 0° 341° (NNW) 3,248 6.2 -9.5°
